#datetime,building,power
2023-01-20T00:00:00,mfh,67.73
2023-01-20T00:01:00,mfh,67.65
2023-01-20T00:02:00,mfh,67.49
2023-01-20T00:03:00,mfh,66.66
2023-01-20T00:04:00,mfh,66.52
2023-01-20T00:05:00,mfh,54.26
2023-01-20T00:06:00,mfh,54.85
2023-01-20T00:07:00,mfh,54.88
2023-01-20T00:08:00,mfh,49.58
2023-01-20T00:09:00,mfh,49.62
2023-01-20T00:10:00,mfh,50.34
2023-01-20T00:11:00,mfh,50.53
2023-01-20T00:12:00,mfh,42.38
2023-01-20T00:13:00,mfh,44.78
2023-01-20T00:14:00,mfh,44.46
2023-01-20T00:15:00,mfh,45.30
2023-01-20T00:16:00,mfh,44.53
2023-01-20T00:17:00,mfh,44.64
2023-01-20T00:18:00,mfh,44.62
2023-01-20T00:19:00,mfh,44.79
2023-01-20T00:20:00,mfh,44.68
2023-01-20T00:21:00,mfh,43.99
2023-01-20T00:22:00,mfh,43.96
2023-01-20T00:23:00,mfh,44.06
2023-01-20T00:24:00,mfh,44.02
2023-01-20T00:25:00,mfh,44.77
2023-01-20T00:26:00,mfh,44.68
2023-01-20T00:27:00,mfh,44.64
2023-01-20T00:28:00,mfh,44.85
2023-01-20T00:29:00,mfh,45.01
2023-01-20T00:30:00,mfh,45.06
2023-01-20T00:31:00,mfh,44.04
2023-01-20T00:32:00,mfh,42.19
2023-01-20T00:33:00,mfh,42.21
2023-01-20T00:34:00,mfh,43.02
2023-01-20T00:35:00,mfh,42.78
2023-01-20T00:36:00,mfh,42.83
2023-01-20T00:37:00,mfh,43.91
2023-01-20T00:38:00,mfh,43.57
2023-01-20T00:39:00,mfh,42.45
2023-01-20T00:40:00,mfh,42.50
2023-01-20T00:41:00,mfh,42.54
2023-01-20T00:42:00,mfh,43.89
2023-01-20T00:43:00,mfh,43.11
2023-01-20T00:44:00,mfh,43.13
2023-01-20T00:45:00,mfh,43.01
2023-01-20T00:46:00,mfh,42.98
2023-01-20T00:47:00,mfh,43.01
2023-01-20T00:48:00,mfh,43.50
2023-01-20T00:49:00,mfh,42.45
2023-01-20T00:50:00,mfh,42.46
2023-01-20T00:51:00,mfh,42.47
2023-01-20T00:52:00,mfh,42.47
2023-01-20T00:53:00,mfh,43.74
2023-01-20T00:54:00,mfh,43.54
2023-01-20T00:55:00,mfh,43.19
2023-01-20T00:56:00,mfh,43.11
2023-01-20T00:57:00,mfh,43.12
2023-01-20T00:58:00,mfh,42.52
2023-01-20T00:59:00,mfh,42.66
2023-01-20T01:00:00,mfh,42.67
2023-01-20T01:01:00,mfh,43.24
2023-01-20T01:02:00,mfh,43.30
2023-01-20T01:03:00,mfh,44.06
2023-01-20T01:04:00,mfh,43.89
2023-01-20T01:05:00,mfh,43.48
2023-01-20T01:06:00,mfh,43.36
2023-01-20T01:07:00,mfh,42.61
2023-01-20T01:08:00,mfh,42.71
2023-01-20T01:09:00,mfh,42.64
2023-01-20T01:10:00,mfh,43.21
2023-01-20T01:11:00,mfh,43.22
2023-01-20T01:12:00,mfh,43.45
2023-01-20T01:13:00,mfh,43.44
2023-01-20T01:14:00,mfh,43.49
2023-01-20T01:15:00,mfh,43.75
2023-01-20T01:16:00,mfh,42.74
2023-01-20T01:17:00,mfh,42.74
2023-01-20T01:18:00,mfh,42.75
2023-01-20T01:19:00,mfh,43.37
2023-01-20T01:20:00,mfh,43.35
2023-01-20T01:21:00,mfh,43.50
2023-01-20T01:22:00,mfh,43.37
2023-01-20T01:23:00,mfh,43.38
2023-01-20T01:24:00,mfh,43.35
2023-01-20T01:25:00,mfh,43.37
2023-01-20T01:26:00,mfh,43.29
2023-01-20T01:27:00,mfh,43.10
2023-01-20T01:28:00,mfh,42.46
2023-01-20T01:29:00,mfh,43.22
2023-01-20T01:30:00,mfh,43.53
2023-01-20T01:31:00,mfh,43.22
2023-01-20T01:32:00,mfh,43.31
2023-01-20T01:33:00,mfh,44.79
2023-01-20T01:34:00,mfh,44.93
2023-01-20T01:35:00,mfh,46.22
2023-01-20T01:36:00,mfh,46.20
2023-01-20T01:37:00,mfh,46.84
2023-01-20T01:38:00,mfh,45.89
2023-01-20T01:39:00,mfh,45.14
2023-01-20T01:40:00,mfh,45.17
2023-01-20T01:41:00,mfh,45.21
2023-01-20T01:42:00,mfh,45.06
2023-01-20T01:43:00,mfh,44.93
2023-01-20T01:44:00,mfh,44.28
2023-01-20T01:45:00,mfh,44.25
2023-01-20T01:46:00,mfh,45.55
2023-01-20T01:47:00,mfh,44.44
2023-01-20T01:48:00,mfh,45.08
2023-01-20T01:49:00,mfh,45.07
2023-01-20T01:50:00,mfh,45.00
2023-01-20T01:51:00,mfh,45.73
2023-01-20T01:52:00,mfh,45.09
2023-01-20T01:53:00,mfh,44.60
2023-01-20T01:54:00,mfh,45.85
2023-01-20T01:55:00,mfh,43.27
2023-01-20T01:56:00,mfh,43.92
2023-01-20T01:57:00,mfh,43.96
2023-01-20T01:58:00,mfh,43.89
2023-01-20T01:59:00,mfh,44.05
2023-01-20T02:00:00,mfh,43.09
2023-01-20T02:01:00,mfh,43.13
2023-01-20T02:02:00,mfh,43.70
2023-01-20T02:03:00,mfh,42.47
2023-01-20T02:04:00,mfh,42.58
2023-01-20T02:05:00,mfh,42.65
2023-01-20T02:06:00,mfh,43.28
2023-01-20T02:07:00,mfh,43.87
2023-01-20T02:08:00,mfh,43.75
2023-01-20T02:09:00,mfh,43.14
2023-01-20T02:10:00,mfh,43.18
2023-01-20T02:11:00,mfh,44.07
2023-01-20T02:12:00,mfh,43.16
2023-01-20T02:13:00,mfh,43.05
2023-01-20T02:14:00,mfh,43.02
2023-01-20T02:15:00,mfh,43.52
2023-01-20T02:16:00,mfh,43.39
2023-01-20T02:17:00,mfh,43.43
2023-01-20T02:18:00,mfh,44.07
2023-01-20T02:19:00,mfh,43.10
2023-01-20T02:20:00,mfh,43.13
2023-01-20T02:21:00,mfh,42.44
2023-01-20T02:22:00,mfh,42.51
2023-01-20T02:23:00,mfh,42.54
2023-01-20T02:24:00,mfh,42.56
2023-01-20T02:25:00,mfh,43.90
2023-01-20T02:26:00,mfh,42.99
2023-01-20T02:27:00,mfh,43.39
2023-01-20T02:28:00,mfh,42.98
2023-01-20T02:29:00,mfh,43.04
2023-01-20T02:30:00,mfh,43.07
2023-01-20T02:31:00,mfh,42.33
2023-01-20T02:32:00,mfh,42.43
2023-01-20T02:33:00,mfh,42.40
2023-01-20T02:34:00,mfh,42.93
2023-01-20T02:35:00,mfh,43.03
2023-01-20T02:36:00,mfh,44.10
2023-01-20T02:37:00,mfh,43.82
2023-01-20T02:38:00,mfh,43.98
2023-01-20T02:39:00,mfh,43.62
2023-01-20T02:40:00,mfh,42.86
2023-01-20T02:41:00,mfh,42.69
2023-01-20T02:42:00,mfh,42.71
2023-01-20T02:43:00,mfh,43.24
2023-01-20T02:44:00,mfh,43.25
2023-01-20T02:45:00,mfh,43.32
2023-01-20T02:46:00,mfh,43.41
2023-01-20T02:47:00,mfh,43.40
2023-01-20T02:48:00,mfh,43.48
2023-01-20T02:49:00,mfh,42.75
2023-01-20T02:50:00,mfh,42.81
2023-01-20T02:51:00,mfh,43.24
2023-01-20T02:52:00,mfh,43.89
2023-01-20T02:53:00,mfh,43.16
2023-01-20T02:54:00,mfh,43.62
2023-01-20T02:55:00,mfh,45.14
2023-01-20T02:56:00,mfh,45.21
2023-01-20T02:57:00,mfh,45.22
2023-01-20T02:58:00,mfh,45.36
2023-01-20T02:59:00,mfh,44.64
2023-01-20T03:00:00,mfh,44.54
2023-01-20T03:01:00,mfh,44.66
2023-01-20T03:02:00,mfh,45.40
2023-01-20T03:03:00,mfh,45.27
2023-01-20T03:04:00,mfh,45.30
2023-01-20T03:05:00,mfh,45.41
2023-01-20T03:06:00,mfh,45.43
2023-01-20T03:07:00,mfh,45.27
2023-01-20T03:08:00,mfh,44.59
2023-01-20T03:09:00,mfh,44.34
2023-01-20T03:10:00,mfh,44.44
2023-01-20T03:11:00,mfh,45.21
2023-01-20T03:12:00,mfh,45.85
2023-01-20T03:13:00,mfh,45.53
2023-01-20T03:14:00,mfh,45.48
2023-01-20T03:15:00,mfh,43.54
2023-01-20T03:16:00,mfh,43.47
2023-01-20T03:17:00,mfh,42.59
2023-01-20T03:18:00,mfh,43.90
2023-01-20T03:19:00,mfh,42.71
2023-01-20T03:20:00,mfh,43.27
2023-01-20T03:21:00,mfh,44.28
2023-01-20T03:22:00,mfh,43.17
2023-01-20T03:23:00,mfh,43.29
2023-01-20T03:24:00,mfh,43.23
2023-01-20T03:25:00,mfh,43.26
2023-01-20T03:26:00,mfh,42.70
2023-01-20T03:27:00,mfh,43.35
2023-01-20T03:28:00,mfh,43.20
2023-01-20T03:29:00,mfh,43.36
2023-01-20T03:30:00,mfh,43.41
2023-01-20T03:31:00,mfh,43.33
2023-01-20T03:32:00,mfh,43.27
2023-01-20T03:33:00,mfh,43.25
2023-01-20T03:34:00,mfh,43.26
2023-01-20T03:35:00,mfh,43.21
2023-01-20T03:36:00,mfh,42.58
2023-01-20T03:37:00,mfh,42.61
2023-01-20T03:38:00,mfh,42.68
2023-01-20T03:39:00,mfh,43.30
2023-01-20T03:40:00,mfh,43.35
2023-01-20T03:41:00,mfh,43.51
2023-01-20T03:42:00,mfh,43.53
2023-01-20T03:43:00,mfh,43.39
2023-01-20T03:44:00,mfh,44.53
2023-01-20T03:45:00,mfh,43.74
2023-01-20T03:46:00,mfh,42.82
2023-01-20T03:47:00,mfh,42.86
2023-01-20T03:48:00,mfh,43.79
2023-01-20T03:49:00,mfh,43.58
2023-01-20T03:50:00,mfh,43.84
2023-01-20T03:51:00,mfh,43.76
2023-01-20T03:52:00,mfh,44.53
2023-01-20T03:53:00,mfh,43.87
2023-01-20T03:54:00,mfh,43.07
2023-01-20T03:55:00,mfh,43.59
2023-01-20T03:56:00,mfh,42.87
2023-01-20T03:57:00,mfh,43.22
2023-01-20T03:58:00,mfh,43.18
2023-01-20T03:59:00,mfh,43.25
2023-01-20T04:00:00,mfh,43.98
2023-01-20T04:01:00,mfh,43.27
2023-01-20T04:02:00,mfh,43.30
2023-01-20T04:03:00,mfh,42.66
2023-01-20T04:04:00,mfh,43.63
2023-01-20T04:05:00,mfh,42.71
2023-01-20T04:06:00,mfh,43.37
2023-01-20T04:07:00,mfh,43.35
2023-01-20T04:08:00,mfh,44.04
2023-01-20T04:09:00,mfh,45.03
2023-01-20T04:10:00,mfh,44.25
2023-01-20T04:11:00,mfh,44.28
2023-01-20T04:12:00,mfh,42.70
2023-01-20T04:13:00,mfh,42.75
2023-01-20T04:14:00,mfh,44.62
2023-01-20T04:15:00,mfh,44.63
2023-01-20T04:16:00,mfh,45.27
2023-01-20T04:17:00,mfh,45.89
2023-01-20T04:18:00,mfh,46.17
2023-01-20T04:19:00,mfh,45.72
2023-01-20T04:20:00,mfh,45.41
2023-01-20T04:21:00,mfh,44.79
2023-01-20T04:22:00,mfh,44.64
2023-01-20T04:23:00,mfh,44.66
2023-01-20T04:24:00,mfh,45.71
2023-01-20T04:25:00,mfh,46.35
2023-01-20T04:26:00,mfh,54.83
2023-01-20T04:27:00,mfh,57.63
2023-01-20T04:28:00,mfh,56.42
2023-01-20T04:29:00,mfh,56.41
2023-01-20T04:30:00,mfh,55.89
2023-01-20T04:31:00,mfh,56.35
2023-01-20T04:32:00,mfh,56.37
2023-01-20T04:33:00,mfh,54.42
2023-01-20T04:34:00,mfh,54.52
2023-01-20T04:35:00,mfh,54.66
2023-01-20T04:36:00,mfh,54.64
2023-01-20T04:37:00,mfh,55.14
2023-01-20T04:38:00,mfh,55.04
2023-01-20T04:39:00,mfh,54.11
2023-01-20T04:40:00,mfh,54.39
2023-01-20T04:41:00,mfh,54.78
2023-01-20T04:42:00,mfh,54.11
2023-01-20T04:43:00,mfh,54.64
2023-01-20T04:44:00,mfh,54.68
2023-01-20T04:45:00,mfh,55.83
2023-01-20T04:46:00,mfh,55.90
2023-01-20T04:47:00,mfh,55.92
2023-01-20T04:48:00,mfh,56.01
2023-01-20T04:49:00,mfh,55.57
2023-01-20T04:50:00,mfh,55.62
2023-01-20T04:51:00,mfh,53.83
2023-01-20T04:52:00,mfh,54.48
2023-01-20T04:53:00,mfh,54.57
2023-01-20T04:54:00,mfh,54.73
2023-01-20T04:55:00,mfh,54.76
2023-01-20T04:56:00,mfh,54.86
2023-01-20T04:57:00,mfh,54.71
2023-01-20T04:58:00,mfh,53.94
2023-01-20T04:59:00,mfh,54.00
2023-01-20T05:00:00,mfh,55.05
2023-01-20T05:01:00,mfh,71.19
2023-01-20T05:02:00,mfh,75.85
2023-01-20T05:03:00,mfh,76.13
2023-01-20T05:04:00,mfh,76.06
2023-01-20T05:05:00,mfh,76.48
2023-01-20T05:06:00,mfh,76.14
2023-01-20T05:07:00,mfh,74.58
2023-01-20T05:08:00,mfh,74.51
2023-01-20T05:09:00,mfh,73.91
2023-01-20T05:10:00,mfh,74.27
2023-01-20T05:11:00,mfh,74.34
2023-01-20T05:12:00,mfh,74.72
2023-01-20T05:13:00,mfh,75.06
2023-01-20T05:14:00,mfh,75.39
2023-01-20T05:15:00,mfh,75.12
2023-01-20T05:16:00,mfh,74.40
2023-01-20T05:17:00,mfh,74.71
2023-01-20T05:18:00,mfh,74.58
2023-01-20T05:19:00,mfh,75.10
2023-01-20T05:20:00,mfh,75.05
2023-01-20T05:21:00,mfh,74.92
2023-01-20T05:22:00,mfh,75.01
2023-01-20T05:23:00,mfh,75.12
2023-01-20T05:24:00,mfh,74.36
2023-01-20T05:25:00,mfh,74.55
2023-01-20T05:26:00,mfh,74.67
2023-01-20T05:27:00,mfh,74.54
2023-01-20T05:28:00,mfh,75.33
2023-01-20T05:29:00,mfh,75.49
2023-01-20T05:30:00,mfh,75.43
2023-01-20T05:31:00,mfh,75.56
2023-01-20T05:32:00,mfh,75.67
2023-01-20T05:33:00,mfh,76.23
2023-01-20T05:34:00,mfh,75.99
2023-01-20T05:35:00,mfh,75.90
2023-01-20T05:36:00,mfh,76.08
2023-01-20T05:37:00,mfh,76.41
2023-01-20T05:38:00,mfh,76.36
2023-01-20T05:39:00,mfh,76.33
2023-01-20T05:40:00,mfh,76.84
2023-01-20T05:41:00,mfh,76.09
2023-01-20T05:42:00,mfh,76.03
2023-01-20T05:43:00,mfh,75.59
2023-01-20T05:44:00,mfh,75.47
2023-01-20T05:45:00,mfh,75.50
2023-01-20T05:46:00,mfh,76.12
2023-01-20T05:47:00,mfh,76.61
2023-01-20T05:48:00,mfh,76.08
2023-01-20T05:49:00,mfh,76.17
2023-01-20T05:50:00,mfh,77.17
2023-01-20T05:51:00,mfh,75.54
2023-01-20T05:52:00,mfh,75.91
2023-01-20T05:53:00,mfh,74.40
2023-01-20T05:54:00,mfh,75.13
2023-01-20T05:55:00,mfh,74.60
2023-01-20T05:56:00,mfh,74.67
2023-01-20T05:57:00,mfh,74.62
2023-01-20T05:58:00,mfh,75.39
2023-01-20T05:59:00,mfh,75.13
2023-01-20T06:00:00,mfh,74.60
2023-01-20T06:01:00,mfh,78.43
2023-01-20T06:02:00,mfh,78.53
2023-01-20T06:03:00,mfh,79.42
2023-01-20T06:04:00,mfh,79.43
2023-01-20T06:05:00,mfh,79.37
2023-01-20T06:06:00,mfh,79.65
2023-01-20T06:07:00,mfh,79.70
2023-01-20T06:08:00,mfh,79.57
2023-01-20T06:09:00,mfh,80.11
2023-01-20T06:10:00,mfh,80.01
2023-01-20T06:11:00,mfh,79.50
2023-01-20T06:12:00,mfh,78.84
2023-01-20T06:13:00,mfh,79.07
2023-01-20T06:14:00,mfh,78.54
2023-01-20T06:15:00,mfh,78.79
2023-01-20T06:16:00,mfh,78.89
2023-01-20T06:17:00,mfh,78.97
2023-01-20T06:18:00,mfh,79.37
2023-01-20T06:19:00,mfh,79.09
2023-01-20T06:20:00,mfh,79.34
2023-01-20T06:21:00,mfh,79.35
2023-01-20T06:22:00,mfh,79.63
2023-01-20T06:23:00,mfh,79.98
2023-01-20T06:24:00,mfh,79.29
2023-01-20T06:25:00,mfh,78.99
2023-01-20T06:26:00,mfh,78.67
2023-01-20T06:27:00,mfh,78.29
2023-01-20T06:28:00,mfh,79.48
2023-01-20T06:29:00,mfh,79.60
2023-01-20T06:30:00,mfh,79.35
2023-01-20T06:31:00,mfh,79.04
2023-01-20T06:32:00,mfh,79.15
2023-01-20T06:33:00,mfh,79.02
2023-01-20T06:34:00,mfh,78.77
2023-01-20T06:35:00,mfh,78.88
2023-01-20T06:36:00,mfh,79.24
2023-01-20T06:37:00,mfh,79.11
2023-01-20T06:38:00,mfh,78.43
2023-01-20T06:39:00,mfh,78.36
2023-01-20T06:40:00,mfh,78.76
2023-01-20T06:41:00,mfh,78.80
2023-01-20T06:42:00,mfh,78.94
2023-01-20T06:43:00,mfh,79.15
2023-01-20T06:44:00,mfh,78.95
2023-01-20T06:45:00,mfh,78.92
2023-01-20T06:46:00,mfh,78.77
2023-01-20T06:47:00,mfh,78.94
2023-01-20T06:48:00,mfh,78.79
2023-01-20T06:49:00,mfh,78.75
2023-01-20T06:50:00,mfh,79.42
2023-01-20T06:51:00,mfh,78.77
2023-01-20T06:52:00,mfh,78.38
2023-01-20T06:53:00,mfh,78.42
2023-01-20T06:54:00,mfh,78.09
2023-01-20T06:55:00,mfh,78.26
2023-01-20T06:56:00,mfh,78.35
2023-01-20T06:57:00,mfh,79.16
2023-01-20T06:58:00,mfh,78.70
2023-01-20T06:59:00,mfh,78.47
2023-01-20T07:00:00,mfh,78.57
2023-01-20T07:01:00,mfh,79.45
2023-01-20T07:02:00,mfh,78.89
2023-01-20T07:03:00,mfh,77.67
2023-01-20T07:04:00,mfh,77.74
2023-01-20T07:05:00,mfh,78.04
2023-01-20T07:06:00,mfh,77.79
2023-01-20T07:07:00,mfh,78.51
2023-01-20T07:08:00,mfh,77.60
2023-01-20T07:09:00,mfh,77.65
2023-01-20T07:10:00,mfh,77.56
2023-01-20T07:11:00,mfh,77.81
2023-01-20T07:12:00,mfh,77.76
2023-01-20T07:13:00,mfh,77.78
2023-01-20T07:14:00,mfh,77.96
2023-01-20T07:15:00,mfh,77.36
2023-01-20T07:16:00,mfh,77.94
2023-01-20T07:17:00,mfh,77.78
2023-01-20T07:18:00,mfh,77.50
2023-01-20T07:19:00,mfh,78.56
2023-01-20T07:20:00,mfh,79.11
2023-01-20T07:21:00,mfh,78.42
2023-01-20T07:22:00,mfh,77.62
2023-01-20T07:23:00,mfh,77.30
2023-01-20T07:24:00,mfh,77.06
2023-01-20T07:25:00,mfh,77.70
2023-01-20T07:26:00,mfh,77.63
2023-01-20T07:27:00,mfh,77.91
2023-01-20T07:28:00,mfh,78.76
2023-01-20T07:29:00,mfh,78.17
2023-01-20T07:30:00,mfh,78.56
2023-01-20T07:31:00,mfh,78.06
2023-01-20T07:32:00,mfh,88.02
2023-01-20T07:33:00,mfh,88.53
2023-01-20T07:34:00,mfh,88.32
2023-01-20T07:35:00,mfh,88.47
2023-01-20T07:36:00,mfh,88.17
2023-01-20T07:37:00,mfh,88.13
2023-01-20T07:38:00,mfh,88.01
2023-01-20T07:39:00,mfh,87.94
2023-01-20T07:40:00,mfh,87.84
2023-01-20T07:41:00,mfh,88.01
2023-01-20T07:42:00,mfh,87.67
2023-01-20T07:43:00,mfh,87.70
2023-01-20T07:44:00,mfh,87.80
2023-01-20T07:45:00,mfh,87.82
2023-01-20T07:46:00,mfh,87.99
2023-01-20T07:47:00,mfh,87.70
2023-01-20T07:48:00,mfh,85.05
2023-01-20T07:49:00,mfh,85.13
2023-01-20T07:50:00,mfh,83.70
2023-01-20T07:51:00,mfh,78.87
2023-01-20T07:52:00,mfh,78.98
2023-01-20T07:53:00,mfh,78.54
2023-01-20T07:54:00,mfh,78.99
2023-01-20T07:55:00,mfh,79.23
2023-01-20T07:56:00,mfh,79.17
2023-01-20T07:57:00,mfh,79.19
2023-01-20T07:58:00,mfh,79.30
2023-01-20T07:59:00,mfh,80.04
2023-01-20T08:00:00,mfh,78.59
2023-01-20T08:01:00,mfh,78.79
2023-01-20T08:02:00,mfh,80.04
2023-01-20T08:03:00,mfh,79.88
2023-01-20T08:04:00,mfh,79.76
2023-01-20T08:05:00,mfh,79.54
2023-01-20T08:06:00,mfh,79.52
2023-01-20T08:07:00,mfh,79.82
2023-01-20T08:08:00,mfh,86.01
2023-01-20T08:09:00,mfh,86.65
2023-01-20T08:10:00,mfh,86.80
2023-01-20T08:11:00,mfh,86.57
2023-01-20T08:12:00,mfh,86.55
2023-01-20T08:13:00,mfh,86.48
2023-01-20T08:14:00,mfh,86.18
2023-01-20T08:15:00,mfh,86.30
2023-01-20T08:16:00,mfh,86.07
2023-01-20T08:17:00,mfh,89.62
2023-01-20T08:18:00,mfh,89.79
2023-01-20T08:19:00,mfh,87.96
2023-01-20T08:20:00,mfh,87.99
2023-01-20T08:21:00,mfh,87.72
2023-01-20T08:22:00,mfh,87.65
2023-01-20T08:23:00,mfh,87.63
2023-01-20T08:24:00,mfh,87.45
2023-01-20T08:25:00,mfh,87.30
2023-01-20T08:26:00,mfh,89.17
2023-01-20T08:27:00,mfh,89.10
2023-01-20T08:28:00,mfh,89.12
2023-01-20T08:29:00,mfh,89.18
2023-01-20T08:30:00,mfh,89.24
2023-01-20T08:31:00,mfh,89.16
2023-01-20T08:32:00,mfh,89.06
2023-01-20T08:33:00,mfh,89.28
2023-01-20T08:34:00,mfh,89.06
2023-01-20T08:35:00,mfh,89.13
2023-01-20T08:36:00,mfh,89.16
2023-01-20T08:37:00,mfh,89.09
2023-01-20T08:38:00,mfh,89.33
2023-01-20T08:39:00,mfh,89.17
2023-01-20T08:40:00,mfh,89.13
2023-01-20T08:41:00,mfh,89.06
2023-01-20T08:42:00,mfh,89.01
2023-01-20T08:43:00,mfh,89.03
2023-01-20T08:44:00,mfh,89.11
2023-01-20T08:45:00,mfh,89.09
2023-01-20T08:46:00,mfh,89.21
2023-01-20T08:47:00,mfh,89.04
2023-01-20T08:48:00,mfh,89.06
2023-01-20T08:49:00,mfh,89.07
2023-01-20T08:50:00,mfh,89.06
2023-01-20T08:51:00,mfh,89.24
2023-01-20T08:52:00,mfh,89.13
2023-01-20T08:53:00,mfh,89.08
2023-01-20T08:54:00,mfh,88.99
2023-01-20T08:55:00,mfh,88.77
2023-01-20T08:56:00,mfh,85.19
2023-01-20T08:57:00,mfh,85.41
2023-01-20T08:58:00,mfh,85.20
2023-01-20T08:59:00,mfh,85.25
2023-01-20T09:00:00,mfh,85.25
2023-01-20T09:01:00,mfh,85.31
2023-01-20T09:02:00,mfh,85.39
2023-01-20T09:03:00,mfh,85.40
2023-01-20T09:04:00,mfh,85.50
2023-01-20T09:05:00,mfh,85.09
2023-01-20T09:06:00,mfh,85.21
2023-01-20T09:07:00,mfh,85.09
2023-01-20T09:08:00,mfh,85.19
2023-01-20T09:09:00,mfh,84.85
2023-01-20T09:10:00,mfh,85.02
2023-01-20T09:11:00,mfh,85.23
2023-01-20T09:12:00,mfh,85.22
2023-01-20T09:13:00,mfh,85.43
2023-01-20T09:14:00,mfh,85.20
2023-01-20T09:15:00,mfh,85.24
2023-01-20T09:16:00,mfh,85.20
2023-01-20T09:17:00,mfh,84.89
2023-01-20T09:18:00,mfh,84.95
2023-01-20T09:19:00,mfh,84.87
2023-01-20T09:20:00,mfh,85.02
2023-01-20T09:21:00,mfh,84.91
2023-01-20T09:22:00,mfh,85.03
2023-01-20T09:23:00,mfh,85.11
2023-01-20T09:24:00,mfh,85.13
2023-01-20T09:25:00,mfh,85.20
2023-01-20T09:26:00,mfh,85.09
2023-01-20T09:27:00,mfh,85.09
2023-01-20T09:28:00,mfh,85.16
2023-01-20T09:29:00,mfh,85.16
2023-01-20T09:30:00,mfh,85.03
2023-01-20T09:31:00,mfh,87.70
2023-01-20T09:32:00,mfh,87.87
2023-01-20T09:33:00,mfh,87.91
2023-01-20T09:34:00,mfh,87.67
2023-01-20T09:35:00,mfh,87.60
2023-01-20T09:36:00,mfh,87.54
2023-01-20T09:37:00,mfh,87.80
2023-01-20T09:38:00,mfh,87.88
2023-01-20T09:39:00,mfh,87.81
2023-01-20T09:40:00,mfh,87.81
2023-01-20T09:41:00,mfh,87.80
2023-01-20T09:42:00,mfh,87.75
2023-01-20T09:43:00,mfh,87.68
2023-01-20T09:44:00,mfh,89.11
2023-01-20T09:45:00,mfh,89.42
2023-01-20T09:46:00,mfh,89.21
2023-01-20T09:47:00,mfh,89.11
2023-01-20T09:48:00,mfh,89.15
2023-01-20T09:49:00,mfh,89.19
2023-01-20T09:50:00,mfh,89.32
2023-01-20T09:51:00,mfh,89.45
2023-01-20T09:52:00,mfh,89.20
2023-01-20T09:53:00,mfh,89.12
2023-01-20T09:54:00,mfh,89.09
2023-01-20T09:55:00,mfh,89.09
2023-01-20T09:56:00,mfh,89.09
2023-01-20T09:57:00,mfh,89.12
2023-01-20T09:58:00,mfh,89.15
2023-01-20T09:59:00,mfh,89.09
2023-01-20T10:00:00,mfh,88.94
2023-01-20T10:01:00,mfh,89.41
2023-01-20T10:02:00,mfh,89.39
2023-01-20T10:03:00,mfh,89.36
2023-01-20T10:04:00,mfh,89.37
2023-01-20T10:05:00,mfh,89.27
2023-01-20T10:06:00,mfh,89.29
2023-01-20T10:07:00,mfh,89.45
2023-01-20T10:08:00,mfh,89.31
2023-01-20T10:09:00,mfh,89.39
2023-01-20T10:10:00,mfh,89.28
2023-01-20T10:11:00,mfh,89.31
2023-01-20T10:12:00,mfh,89.32
2023-01-20T10:13:00,mfh,89.52
2023-01-20T10:14:00,mfh,89.86
2023-01-20T10:15:00,mfh,89.84
2023-01-20T10:16:00,mfh,89.79
2023-01-20T10:17:00,mfh,89.81
2023-01-20T10:18:00,mfh,89.80
2023-01-20T10:19:00,mfh,89.22
2023-01-20T10:20:00,mfh,89.34
2023-01-20T10:21:00,mfh,89.41
2023-01-20T10:22:00,mfh,89.36
2023-01-20T10:23:00,mfh,89.54
2023-01-20T10:24:00,mfh,89.56
2023-01-20T10:25:00,mfh,89.53
2023-01-20T10:26:00,mfh,89.52
2023-01-20T10:27:00,mfh,89.47
2023-01-20T10:28:00,mfh,89.34
2023-01-20T10:29:00,mfh,89.49
2023-01-20T10:30:00,mfh,89.45
2023-01-20T10:31:00,mfh,89.64
2023-01-20T10:32:00,mfh,89.51
2023-01-20T10:33:00,mfh,89.66
2023-01-20T10:34:00,mfh,89.65
2023-01-20T10:35:00,mfh,89.67
2023-01-20T10:36:00,mfh,89.53
2023-01-20T10:37:00,mfh,89.42
2023-01-20T10:38:00,mfh,89.70
2023-01-20T10:39:00,mfh,89.54
2023-01-20T10:40:00,mfh,89.57
2023-01-20T10:41:00,mfh,89.49
2023-01-20T10:42:00,mfh,89.38
2023-01-20T10:43:00,mfh,89.33
2023-01-20T10:44:00,mfh,89.29
2023-01-20T10:45:00,mfh,89.38
2023-01-20T10:46:00,mfh,89.41
2023-01-20T10:47:00,mfh,89.26
2023-01-20T10:48:00,mfh,89.43
2023-01-20T10:49:00,mfh,89.46
2023-01-20T10:50:00,mfh,89.44
2023-01-20T10:51:00,mfh,89.18
2023-01-20T10:52:00,mfh,89.26
2023-01-20T10:53:00,mfh,88.99
2023-01-20T10:54:00,mfh,89.05
2023-01-20T10:55:00,mfh,89.11
2023-01-20T10:56:00,mfh,89.14
2023-01-20T10:57:00,mfh,89.13
2023-01-20T10:58:00,mfh,89.43
2023-01-20T10:59:00,mfh,89.33
2023-01-20T11:00:00,mfh,89.31
2023-01-20T11:01:00,mfh,89.23
2023-01-20T11:02:00,mfh,89.23
2023-01-20T11:03:00,mfh,89.18
2023-01-20T11:04:00,mfh,89.47
2023-01-20T11:05:00,mfh,89.60
2023-01-20T11:06:00,mfh,89.53
2023-01-20T11:07:00,mfh,89.20
2023-01-20T11:08:00,mfh,89.18
2023-01-20T11:09:00,mfh,89.20
2023-01-20T11:10:00,mfh,89.37
2023-01-20T11:11:00,mfh,89.40
2023-01-20T11:12:00,mfh,89.23
2023-01-20T11:13:00,mfh,89.66
2023-01-20T11:14:00,mfh,89.56
2023-01-20T11:15:00,mfh,89.55
2023-01-20T11:16:00,mfh,89.36
2023-01-20T11:17:00,mfh,89.31
2023-01-20T11:18:00,mfh,89.33
2023-01-20T11:19:00,mfh,89.17
2023-01-20T11:20:00,mfh,89.11
2023-01-20T11:21:00,mfh,89.07
2023-01-20T11:22:00,mfh,89.04
2023-01-20T11:23:00,mfh,89.09
2023-01-20T11:24:00,mfh,89.16
2023-01-20T11:25:00,mfh,89.29
2023-01-20T11:26:00,mfh,89.30
2023-01-20T11:27:00,mfh,89.29
2023-01-20T11:28:00,mfh,89.31
2023-01-20T11:29:00,mfh,89.45
2023-01-20T11:30:00,mfh,89.53
2023-01-20T11:31:00,mfh,89.50
2023-01-20T11:32:00,mfh,89.41
2023-01-20T11:33:00,mfh,89.41
2023-01-20T11:34:00,mfh,89.60
2023-01-20T11:35:00,mfh,89.91
2023-01-20T11:36:00,mfh,89.87
2023-01-20T11:37:00,mfh,89.87
2023-01-20T11:38:00,mfh,89.98
2023-01-20T11:39:00,mfh,89.92
2023-01-20T11:40:00,mfh,89.85
2023-01-20T11:41:00,mfh,89.90
2023-01-20T11:42:00,mfh,89.72
2023-01-20T11:43:00,mfh,89.75
2023-01-20T11:44:00,mfh,89.77
2023-01-20T11:45:00,mfh,89.70
2023-01-20T11:46:00,mfh,89.65
2023-01-20T11:47:00,mfh,89.71
2023-01-20T11:48:00,mfh,89.91
2023-01-20T11:49:00,mfh,90.01
2023-01-20T11:50:00,mfh,89.87
2023-01-20T11:51:00,mfh,89.97
2023-01-20T11:52:00,mfh,90.01
2023-01-20T11:53:00,mfh,89.81
2023-01-20T11:54:00,mfh,89.88
2023-01-20T11:55:00,mfh,89.95
2023-01-20T11:56:00,mfh,89.92
2023-01-20T11:57:00,mfh,90.05
2023-01-20T11:58:00,mfh,88.11
2023-01-20T11:59:00,mfh,88.05
2023-01-20T12:00:00,mfh,88.04
2023-01-20T12:01:00,mfh,86.39
2023-01-20T12:02:00,mfh,83.31
2023-01-20T12:03:00,mfh,83.87
2023-01-20T12:04:00,mfh,83.90
2023-01-20T12:05:00,mfh,83.95
2023-01-20T12:06:00,mfh,84.01
2023-01-20T12:07:00,mfh,83.91
2023-01-20T12:08:00,mfh,84.26
2023-01-20T12:09:00,mfh,84.23
2023-01-20T12:10:00,mfh,84.40
2023-01-20T12:11:00,mfh,82.34
2023-01-20T12:12:00,mfh,82.30
2023-01-20T12:13:00,mfh,82.66
2023-01-20T12:14:00,mfh,82.63
2023-01-20T12:15:00,mfh,83.00
2023-01-20T12:16:00,mfh,83.55
2023-01-20T12:17:00,mfh,83.41
2023-01-20T12:18:00,mfh,83.70
2023-01-20T12:19:00,mfh,83.72
2023-01-20T12:20:00,mfh,84.11
2023-01-20T12:21:00,mfh,84.15
2023-01-20T12:22:00,mfh,84.19
2023-01-20T12:23:00,mfh,83.96
2023-01-20T12:24:00,mfh,85.13
2023-01-20T12:25:00,mfh,89.65
2023-01-20T12:26:00,mfh,89.67
2023-01-20T12:27:00,mfh,89.81
2023-01-20T12:28:00,mfh,89.66
2023-01-20T12:29:00,mfh,89.65
2023-01-20T12:30:00,mfh,89.43
2023-01-20T12:31:00,mfh,89.36
2023-01-20T12:32:00,mfh,89.33
2023-01-20T12:33:00,mfh,90.88
2023-01-20T12:34:00,mfh,91.05
2023-01-20T12:35:00,mfh,90.55
2023-01-20T12:36:00,mfh,90.28
2023-01-20T12:37:00,mfh,90.16
2023-01-20T12:38:00,mfh,90.27
2023-01-20T12:39:00,mfh,90.20
2023-01-20T12:40:00,mfh,90.20
2023-01-20T12:41:00,mfh,86.49
2023-01-20T12:42:00,mfh,84.92
2023-01-20T12:43:00,mfh,84.21
2023-01-20T12:44:00,mfh,84.22
2023-01-20T12:45:00,mfh,84.37
2023-01-20T12:46:00,mfh,84.22
2023-01-20T12:47:00,mfh,84.29
2023-01-20T12:48:00,mfh,84.40
2023-01-20T12:49:00,mfh,84.20
2023-01-20T12:50:00,mfh,84.13
2023-01-20T12:51:00,mfh,79.06
2023-01-20T12:52:00,mfh,80.77
2023-01-20T12:53:00,mfh,80.24
2023-01-20T12:54:00,mfh,80.70
2023-01-20T12:55:00,mfh,80.60
2023-01-20T12:56:00,mfh,80.84
2023-01-20T12:57:00,mfh,80.83
2023-01-20T12:58:00,mfh,81.15
2023-01-20T12:59:00,mfh,83.40
2023-01-20T13:00:00,mfh,83.39
2023-01-20T13:01:00,mfh,82.60
2023-01-20T13:02:00,mfh,82.64
2023-01-20T13:03:00,mfh,83.10
2023-01-20T13:04:00,mfh,82.91
2023-01-20T13:05:00,mfh,82.56
2023-01-20T13:06:00,mfh,83.03
2023-01-20T13:07:00,mfh,82.55
2023-01-20T13:08:00,mfh,82.43
2023-01-20T13:09:00,mfh,83.27
2023-01-20T13:10:00,mfh,86.88
2023-01-20T13:11:00,mfh,90.50
2023-01-20T13:12:00,mfh,90.56
2023-01-20T13:13:00,mfh,90.61
2023-01-20T13:14:00,mfh,90.51
2023-01-20T13:15:00,mfh,90.34
2023-01-20T13:16:00,mfh,90.38
2023-01-20T13:17:00,mfh,90.25
2023-01-20T13:18:00,mfh,90.21